Regional Weather Roundup
Issued by NWS

Home | Current Version | Previous Version | Graphics & Text | Print | Product List | Glossary Off
Versions: 1 2 3 4 5 6 7 8 9 10 11 12 13 14 15 16 17 18 19 20 21 22 23 24 25 26 27 28 29 30 31 32 33 34 35 36 37 38 39 40 41 42 43 44 45 46 47 48 49 50

000
ASUS43 KTOP 011859
RWRKS

WEATHER ROUNDUP FOR KANSAS
NATIONAL WEATHER SERVICE GOODLAND KS
200 PM CDT WED JUL 01 2015

NOTE:  "FAIR" INDICATES FEW OR NO CLOUDS BELOW 12,000 FEET WITH NO
SIGNIFICANT WEATHER AND/OR OBSTRUCTIONS TO VISIBILITY.

KSZ001>006-013>018-027>032-041>047-012000-
NORTHWEST KANSAS

CITY           SKY/WX    TMP DP  RH WIND       PRES   REMARKS
GOODLAND       SUNNY     94  53  25 NE16      30.00S
HAYS           MOSUNNY   95  61  31 NE17G26   29.84R HX  95
HILL CITY      SUNNY     96  64  34 N16G22    29.89S HX  98
RUSSELL        MOSUNNY   96  59  29 N14       29.81R HX  95
$$

KSZ061>065-074>080-084>089-012000-
SOUTHWEST KANSAS

CITY           SKY/WX    TMP DP  RH WIND       PRES   REMARKS
DODGE CITY     SUNNY     96  56  26 N14       29.87S
ELKHART          N/A     96  54  24 N5          N/A
GARDEN CITY    MOSUNNY   97  58  27 N16       29.90S HX  96
GREAT BEND     MOSUNNY   93  59  31 NE10G18   29.82S
LIBERAL        PTSUNNY   91  61  35 N12       29.93F
$$

KSZ066>073-081>083-090>101-012000-
SOUTHEAST KANSAS

CITY           SKY/WX    TMP DP  RH WIND       PRES   REMARKS
CHANUTE        LGT RAIN  84  73  69 S13       29.82F
COFFEYVILLE    PTSUNNY   90  73  57 S13       29.85R HX  98
HUTCHINSON     CLOUDY    93  61  34 W7        29.79F
MEDICINE LODGE   N/A     96  62  32 SW12      29.79F HX  97
PARSONS        CLOUDY    88  74  63 S8        29.86S HX  96
WICHITA INTL   CLOUDY    94  63  35 SW13      29.79F HX  95
WICHITA JABRA  CLOUDY    94  62  34 SW14      29.80F
WINFIELD       MOSUNNY   98  63  31 SW16G30   29.81S HX 100
$$

KSZ007>012-019>026-033>040-048>060-102>105-012000-
NORTHEAST KANSAS

CITY           SKY/WX    TMP DP  RH WIND       PRES   REMARKS
CONCORDIA      MOSUNNY   89  67  47 NE12      29.81R
EMPORIA        CLOUDY    84  71  65 S3        29.80S
LAWRENCE       MOSUNNY   87  73  62 S12       29.81F
MANHATTAN      PTSUNNY   93  63  36 VRB5      29.79R
OLATHE IND     MOSUNNY   83  73  72 S17G24    29.83F
OLATHE EXE     MOSUNNY   81  73  76 S17G24    29.83F
SALINA         PTSUNNY   92  60  34 SW6       29.79S
TOPEKA BILLARD MOSUNNY   85  71  63 S12G21    29.80F
TOPEKA FORBES  MOSUNNY   88  71  57 S15       29.80F
$$


USA.gov is the U.S. government's official web portal to all federal, state and local government web resources and services.